| time (UTC) | temp C | wind direction | speed KPH | gust KPH | rain 1hr cm | rain 24hr cm | rain mn cm | humidity % | barometer mb |
| 20260509124818 | 27 | 237 | 0.0 | 12.9 | 0.00 | 0.00 | 0.00 | 33 | 1013.2 |
| 20260509124317 | 26 | 2 | 1.6 | 4.8 | 0.00 | 0.00 | 0.00 | 33 | 1013.3 |
| 20260509123817 | 26 | 53 | 0.0 | 6.4 | 0.00 | 0.00 | 0.00 | 34 | 1013.2 |
| 20260509123317 | 26 | 240 | 0.0 | 6.4 | 0.00 | 0.00 | 0.00 | 35 | 1013.3 |
| 20260509122816 | 26 | 253 | 6.4 | 11.3 | 0.00 | 0.00 | 0.00 | 35 | 1013.5 |
| 20260509122316 | 25 | 293 | 0.0 | 8.0 | 0.00 | 0.00 | 0.00 | 36 | 1013.5 |
| 20260509121816 | 25 | 210 | 0.0 | 4.8 | 0.00 | 0.00 | 0.00 | 36 | 1013.6 |
| 20260509121316 | 25 | 258 | 1.6 | 8.0 | 0.00 | 0.00 | 0.00 | 36 | 1013.7 |
| 20260509120816 | 25 | 199 | 0.0 | 8.0 | 0.00 | 0.00 | 0.00 | 37 | 1013.7 |
| 20260509120315 | 25 | 227 | 0.0 | 9.7 | 0.00 | 0.00 | 0.00 | 37 | 1013.8 |
| 20260509115815 | 24 | 194 | 0.0 | 8.0 | 0.00 | 0.00 | 0.00 | 38 | 1013.8 |
| 20260509115314 | 24 | 254 | 3.2 | 9.7 | 0.00 | 0.00 | 0.00 | 39 | 1013.9 |
| 20260509114814 | 24 | 205 | 0.0 | 9.7 | 0.00 | 0.00 | 0.00 | 40 | 1013.8 |
| 20260509114314 | 23 | 40 | 0.0 | 3.2 | 0.00 | 0.00 | 0.00 | 40 | 1014.0 |
| 20260509113814 | 23 | 140 | 1.6 | 8.0 | 0.00 | 0.00 | 0.00 | 41 | 1014.0 |
| 20260509113313 | 23 | 345 | 1.6 | 8.0 | 0.00 | 0.00 | 0.00 | 43 | 1014.0 |
| 20260509112813 | 22 | 225 | 0.0 | 11.3 | 0.00 | 0.00 | 0.00 | 43 | 1014.2 |
| 20260509112313 | 22 | 241 | 6.4 | 6.4 | 0.00 | 0.00 | 0.00 | 44 | 1014.2 |
| 20260509111812 | 22 | 125 | 1.6 | 6.4 | 0.00 | 0.00 | 0.00 | 46 | 1014.2 |
| 20260509111312 | 22 | 293 | 0.0 | 11.3 | 0.00 | 0.00 | 0.00 | 45 | 1014.3 |
| 20260509110812 | 22 | 268 | 9.7 | 11.3 | 0.00 | 0.00 | 0.00 | 45 | 1014.4 |
| 20260509110312 | 22 | 329 | 0.0 | 6.4 | 0.00 | 0.00 | 0.00 | 45 | 1014.5 |
| 20260509105811 | 22 | 296 | 1.6 | 4.8 | 0.00 | 0.00 | 0.00 | 45 | 1014.5 |
| 20260509105311 | 22 | 227 | 1.6 | 8.0 | 0.00 | 0.00 | 0.00 | 46 | 1014.6 |
| 20260509104811 | 21 | 213 | 0.0 | 9.7 | 0.00 | 0.00 | 0.00 | 46 | 1014.6 |
| 20260509104310 | 21 | 341 | 0.0 | 8.0 | 0.00 | 0.00 | 0.00 | 47 | 1014.6 |
| 20260509103810 | 21 | 222 | 1.6 | 6.4 | 0.00 | 0.00 | 0.00 | 47 | 1014.7 |
| 20260509103310 | 21 | 282 | 0.0 | 6.4 | 0.00 | 0.00 | 0.00 | 48 | 1014.8 |
| 20260509102810 | 21 | 295 | 4.8 | 9.7 | 0.00 | 0.00 | 0.00 | 48 | 1014.8 |
| 20260509102309 | 20 | 236 | 0.0 | 8.0 | 0.00 | 0.00 | 0.00 | 49 | 1014.8 |
| 20260509101809 | 20 | 223 | 1.6 | 9.7 | 0.00 | 0.00 | 0.00 | 50 | 1014.9 |
| 20260509101309 | 20 | 264 | 1.6 | 9.7 | 0.00 | 0.00 | 0.00 | 50 | 1014.9 |
| 20260509100808 | 20 | 119 | 0.0 | 9.7 | 0.00 | 0.00 | 0.00 | 51 | 1014.9 |
| 20260509100308 | 20 | 312 | 0.0 | 9.7 | 0.00 | 0.00 | 0.00 | 51 | 1014.9 |
| 20260509095808 | 20 | 195 | 0.0 | 4.8 | 0.00 | 0.00 | 0.00 | 54 | 1015.0 |
| 20260509095308 | 19 | 156 | 0.0 | 4.8 | 0.00 | 0.00 | 0.00 | 54 | 1015.0 |
| 20260509094807 | 19 | 251 | 3.2 | 4.8 | 0.00 | 0.00 | 0.00 | 55 | 1015.0 |
| 20260509094307 | 18 | 143 | 4.8 | 9.7 | 0.00 | 0.00 | 0.00 | 56 | 1015.0 |
| 20260509093807 | 18 | 248 | 4.8 | 11.3 | 0.00 | 0.00 | 0.00 | 58 | 1015.1 |
| 20260509093306 | 18 | 115 | 4.8 | 4.8 | 0.00 | 0.00 | 0.00 | 59 | 1015.1 |
| 20260509092806 | 18 | 172 | 1.6 | 6.4 | 0.00 | 0.00 | 0.00 | 59 | 1015.1 |
| 20260509092306 | 17 | 113 | 3.2 | 8.0 | 0.00 | 0.00 | 0.00 | 59 | 1015.0 |
| 20260509091806 | 17 | 247 | 0.0 | 4.8 | 0.00 | 0.00 | 0.00 | 60 | 1015.0 |
| 20260509091305 | 17 | 46 | 0.0 | 11.3 | 0.00 | 0.00 | 0.00 | 61 | 1015.0 |
| 20260509090805 | 17 | 262 | 3.2 | 8.0 | 0.00 | 0.00 | 0.00 | 62 | 1015.1 |
| 20260509090305 | 17 | 232 | 1.6 | 11.3 | 0.00 | 0.00 | 0.00 | 62 | 1015.0 |
| 20260509085805 | 16 | 198 | 1.6 | 6.4 | 0.00 | 0.00 | 0.00 | 63 | 1015.1 |
| 20260509085306 | 16 | 246 | 6.4 | 8.0 | 0.00 | 0.00 | 0.00 | 64 | 1015.2 |
| 20260509084804 | 16 | 302 | 0.0 | 8.0 | 0.00 | 0.00 | 0.00 | 64 | 1015.1 |
| 20260509084304 | 16 | 118 | 3.2 | 4.8 | 0.00 | 0.00 | 0.00 | 64 | 1015.2 |
| 20260509083803 | 16 | 251 | 3.2 | 8.0 | 0.00 | 0.00 | 0.00 | 66 | 1015.2 |
| 20260509083303 | 15 | 112 | 1.6 | 8.0 | 0.00 | 0.00 | 0.00 | 65 | 1015.2 |
| 20260509082803 | 16 | 265 | 6.4 | 11.3 | 0.00 | 0.00 | 0.00 | 67 | 1015.2 |
| 20260509082306 | 15 | 133 | 0.0 | 6.4 | 0.00 | 0.00 | 0.00 | 66 | 1015.2 |
| 20260509081802 | 15 | 248 | 0.0 | 3.2 | 0.00 | 0.00 | 0.00 | 67 | 1015.2 |
| 20260509081302 | 15 | 261 | 0.0 | 6.4 | 0.00 | 0.00 | 0.00 | 67 | 1015.2 |
| 20260509080802 | 15 | 78 | 0.0 | 4.8 | 0.00 | 0.00 | 0.00 | 67 | 1015.2 |
| 20260509080301 | 15 | 264 | 0.0 | 9.7 | 0.00 | 0.00 | 0.00 | 67 | 1015.2 |
| 20260509075801 | 15 | 215 | 0.0 | 4.8 | 0.00 | 0.00 | 0.00 | 68 | 1015.2 |
| 20260509075301 | 15 | 275 | 3.2 | 3.2 | 0.00 | 0.00 | 0.00 | 68 | 1015.2 |
| 20260509074801 | 15 | 163 | 1.6 | 4.8 | 0.00 | 0.00 | 0.00 | 69 | 1015.2 |
| 20260509074300 | 15 | 292 | 1.6 | 4.8 | 0.00 | 0.00 | 0.00 | 68 | 1015.2 |
| 20260509073800 | 15 | 26 | 0.0 | 6.4 | 0.00 | 0.00 | 0.00 | 69 | 1015.3 |
| 20260509073300 | 15 | 64 | 1.6 | 3.2 | 0.00 | 0.00 | 0.00 | 69 | 1015.2 |
| 20260509072759 | 14 | 236 | 1.6 | 4.8 | 0.00 | 0.00 | 0.00 | 69 | 1015.2 |
| 20260509072259 | 14 | 175 | 0.0 | 4.8 | 0.00 | 0.00 | 0.00 | 69 | 1015.2 |
| 20260509071759 | 14 | 137 | 0.0 | 3.2 | 0.00 | 0.00 | 0.00 | 70 | 1015.3 |
| 20260509071259 | 14 | 192 | 0.0 | 6.4 | 0.00 | 0.00 | 0.00 | 71 | 1015.3 |
| 20260509070758 | 14 | 60 | 0.0 | 6.4 | 0.00 | 0.00 | 0.00 | 71 | 1015.4 |
| 20260509070258 | 13 | 307 | 0.0 | 6.4 | 0.00 | 0.00 | 0.00 | 71 | 1015.3 |
| 20260509065758 | 13 | 251 | 0.0 | 6.4 | 0.00 | 0.00 | 0.00 | 72 | 1015.3 |
| 20260509065257 | 13 | 277 | 0.0 | 4.8 | 0.00 | 0.00 | 0.00 | 72 | 1015.4 |
| 20260509064757 | 13 | 281 | 0.0 | 6.4 | 0.00 | 0.00 | 0.00 | 73 | 1015.3 |
| 20260509064257 | 13 | 165 | 1.6 | 9.7 | 0.00 | 0.00 | 0.00 | 73 | 1015.3 |
| 20260509063757 | 13 | 14 | 0.0 | 8.0 | 0.00 | 0.00 | 0.00 | 73 | 1015.3 |
| 20260509063256 | 13 | 210 | 1.6 | 4.8 | 0.00 | 0.00 | 0.00 | 74 | 1015.3 |
| 20260509062756 | 13 | 333 | 3.2 | 4.8 | 0.00 | 0.00 | 0.00 | 74 | 1015.2 |
| 20260509062256 | 12 | 258 | 3.2 | 4.8 | 0.00 | 0.00 | 0.00 | 74 | 1015.2 |
| 20260509061755 | 12 | 312 | 0.0 | 6.4 | 0.00 | 0.00 | 0.00 | 74 | 1015.2 |
| 20260509061255 | 12 | 81 | 0.0 | 9.7 | 0.00 | 0.00 | 0.00 | 75 | 1015.2 |
| 20260509060755 | 12 | 0 | 1.6 | 3.2 | 0.00 | 0.00 | 0.00 | 75 | 1015.2 |
| 20260509060255 | 12 | 209 | 0.0 | 3.2 | 0.00 | 0.00 | 0.00 | 75 | 1015.2 |
| 20260509055754 | 12 | 272 | 0.0 | 3.2 | 0.00 | 0.00 | 0.00 | 75 | 1015.2 |
| 20260509055254 | 12 | 108 | 0.0 | 1.6 | 0.00 | 0.00 | 0.00 | 75 | 1015.3 |
| 20260509054754 | 12 | 255 | 1.6 | 4.8 | 0.00 | 0.00 | 0.00 | 75 | 1015.3 |
| 20260509054254 | 12 | 251 | 0.0 | 0.0 | 0.00 | 0.00 | 0.00 | 75 | 1015.3 |
| 20260509053753 | 12 | 251 | 0.0 | 6.4 | 0.00 | 0.00 | 0.00 | 75 | 1015.3 |
| 20260509053253 | 12 | 203 | 0.0 | 4.8 | 0.00 | 0.00 | 0.00 | 76 | 1015.3 |
| 20260509052753 | 11 | 267 | 3.2 | 4.8 | 0.00 | 0.00 | 0.00 | 76 | 1015.2 |
| 20260509052252 | 11 | 234 | 0.0 | 4.8 | 0.00 | 0.00 | 0.00 | 76 | 1015.1 |
| 20260509051752 | 11 | 108 | 0.0 | 0.0 | 0.00 | 0.00 | 0.00 | 76 | 1015.0 |
| 20260509051252 | 11 | 108 | 0.0 | 0.0 | 0.00 | 0.00 | 0.00 | 75 | 1015.1 |
| 20260509050752 | 11 | 108 | 0.0 | 0.0 | 0.00 | 0.00 | 0.00 | 75 | 1015.1 |
| 20260509050251 | 11 | 180 | 0.0 | 0.0 | 0.00 | 0.00 | 0.00 | 75 | 1015.1 |
| 20260509045751 | 11 | 226 | 0.0 | 0.0 | 0.00 | 0.00 | 0.00 | 75 | 1015.0 |
| 20260509045251 | 11 | 226 | 0.0 | 1.6 | 0.00 | 0.00 | 0.00 | 75 | 1015.1 |
| 20260509044750 | 11 | 227 | 0.0 | 0.0 | 0.00 | 0.00 | 0.00 | 75 | 1015.1 |
| 20260509044250 | 11 | 240 | 0.0 | 0.0 | 0.00 | 0.00 | 0.00 | 75 | 1015.0 |
| 20260509043750 | 11 | 240 | 0.0 | 0.0 | 0.00 | 0.00 | 0.00 | 74 | 1015.0 |
| 20260509043250 | 11 | 240 | 0.0 | 1.6 | 0.00 | 0.00 | 0.00 | 74 | 1015.0 |
| 20260509042749 | 11 | 229 | 0.0 | 0.0 | 0.00 | 0.00 | 0.00 | 74 | 1015.0 |
| 20260509042249 | 11 | 229 | 0.0 | 0.0 | 0.00 | 0.00 | 0.00 | 74 | 1014.9 |
| 20260509041749 | 11 | 229 | 0.0 | 0.0 | 0.00 | 0.00 | 0.00 | 74 | 1014.9 |
| 20260509041248 | 11 | 229 | 0.0 | 3.2 | 0.00 | 0.00 | 0.00 | 74 | 1014.9 |
| 20260509040748 | 11 | 241 | 0.0 | 0.0 | 0.00 | 0.00 | 0.00 | 73 | 1014.8 |
| 20260509040248 | 11 | 241 | 0.0 | 0.0 | 0.00 | 0.00 | 0.00 | 73 | 1014.8 |
| 20260509035748 | 11 | 241 | 0.0 | 0.0 | 0.00 | 0.00 | 0.00 | 73 | 1014.7 |
| 20260509035247 | 11 | 241 | 0.0 | 0.0 | 0.00 | 0.00 | 0.00 | 73 | 1014.6 |
| 20260509034747 | 11 | 241 | 0.0 | 0.0 | 0.00 | 0.00 | 0.00 | 73 | 1014.7 |
| 20260509034247 | 12 | 241 | 0.0 | 3.2 | 0.00 | 0.00 | 0.00 | 73 | 1014.7 |
| 20260509033746 | 11 | 239 | 0.0 | 0.0 | 0.00 | 0.00 | 0.00 | 72 | 1014.6 |
| 20260509033246 | 11 | 239 | 0.0 | 0.0 | 0.00 | 0.00 | 0.00 | 72 | 1014.7 |
| 20260509032746 | 12 | 239 | 0.0 | 0.0 | 0.00 | 0.00 | 0.00 | 72 | 1014.7 |
| 20260509032246 | 12 | 239 | 0.0 | 0.0 | 0.00 | 0.00 | 0.00 | 72 | 1014.7 |
| 20260509031745 | 12 | 239 | 0.0 | 1.6 | 0.00 | 0.00 | 0.00 | 72 | 1014.7 |
| 20260509031245 | 12 | 253 | 0.0 | 0.0 | 0.00 | 0.00 | 0.00 | 71 | 1014.8 |
| 20260509030745 | 12 | 253 | 0.0 | 0.0 | 0.00 | 0.00 | 0.00 | 71 | 1014.9 |
| 20260509030244 | 12 | 253 | 0.0 | 0.0 | 0.00 | 0.00 | 0.00 | 71 | 1014.8 |
| 20260509025744 | 12 | 253 | 0.0 | 0.0 | 0.00 | 0.00 | 0.00 | 71 | 1014.9 |
| 20260509025244 | 12 | 253 | 0.0 | 0.0 | 0.00 | 0.00 | 0.00 | 71 | 1014.9 |
| 20260509024744 | 12 | 253 | 0.0 | 0.0 | 0.00 | 0.00 | 0.00 | 71 | 1014.9 |
| 20260509024243 | 12 | 253 | 0.0 | 0.0 | 0.00 | 0.00 | 0.00 | 71 | 1014.9 |
| 20260509023743 | 12 | 253 | 0.0 | 0.0 | 0.00 | 0.00 | 0.00 | 71 | 1014.9 |
| 20260509023243 | 12 | 253 | 0.0 | 0.0 | 0.00 | 0.00 | 0.00 | 70 | 1014.9 |
| 20260509022742 | 12 | 253 | 0.0 | 0.0 | 0.00 | 0.00 | 0.00 | 70 | 1014.8 |
| 20260509022242 | 13 | 253 | 0.0 | 0.0 | 0.00 | 0.00 | 0.00 | 70 | 1014.8 |
| 20260509021742 | 12 | 253 | 0.0 | 0.0 | 0.00 | 0.00 | 0.00 | 70 | 1014.8 |
| 20260509021242 | 13 | 253 | 0.0 | 0.0 | 0.00 | 0.00 | 0.00 | 70 | 1014.7 |
| 20260509020741 | 13 | 253 | 0.0 | 0.0 | 0.00 | 0.00 | 0.00 | 70 | 1014.6 |
| 20260509020241 | 13 | 253 | 0.0 | 0.0 | 0.00 | 0.00 | 0.00 | 69 | 1014.6 |
| 20260509015741 | 13 | 253 | 0.0 | 0.0 | 0.00 | 0.00 | 0.00 | 69 | 1014.6 |
| 20260509015240 | 13 | 253 | 0.0 | 0.0 | 0.00 | 0.00 | 0.00 | 69 | 1014.7 |
| 20260509014740 | 13 | 253 | 0.0 | 0.0 | 0.00 | 0.00 | 0.00 | 69 | 1014.7 |
| 20260509014240 | 13 | 253 | 0.0 | 0.0 | 0.00 | 0.00 | 0.00 | 69 | 1014.7 |
| 20260509013740 | 13 | 253 | 0.0 | 0.0 | 0.00 | 0.00 | 0.00 | 68 | 1014.7 |
| 20260509013239 | 13 | 253 | 0.0 | 0.0 | 0.00 | 0.00 | 0.00 | 68 | 1014.7 |
| 20260509012739 | 13 | 253 | 0.0 | 0.0 | 0.00 | 0.00 | 0.00 | 68 | 1014.8 |
| 20260509012239 | 14 | 253 | 0.0 | 0.0 | 0.00 | 0.00 | 0.00 | 68 | 1014.7 |
| 20260509011738 | 13 | 253 | 0.0 | 0.0 | 0.00 | 0.00 | 0.00 | 68 | 1014.8 |
| 20260509011238 | 14 | 253 | 0.0 | 0.0 | 0.00 | 0.00 | 0.00 | 68 | 1014.7 |
| 20260509010738 | 14 | 253 | 0.0 | 0.0 | 0.00 | 0.00 | 0.00 | 68 | 1014.7 |
| 20260509010238 | 15 | 253 | 0.0 | 0.0 | 0.00 | 0.00 | 0.00 | 68 | 1014.8 |
| 20260509005737 | 14 | 253 | 0.0 | 0.0 | 0.00 | 0.00 | 0.00 | 68 | 1014.8 |
| 20260509005237 | 14 | 253 | 0.0 | 0.0 | 0.00 | 0.00 | 0.00 | 68 | 1014.9 |
| 20260509004737 | 14 | 253 | 0.0 | 0.0 | 0.00 | 0.00 | 0.00 | 67 | 1014.9 |
| 20260509004236 | 15 | 253 | 0.0 | 0.0 | 0.00 | 0.00 | 0.00 | 67 | 1014.9 |
| 20260509003736 | 14 | 253 | 0.0 | 0.0 | 0.00 | 0.00 | 0.00 | 67 | 1014.9 |
| 20260509003236 | 14 | 253 | 0.0 | 0.0 | 0.00 | 0.00 | 0.00 | 67 | 1014.9 |
| 20260509002736 | 15 | 253 | 0.0 | 0.0 | 0.00 | 0.00 | 0.00 | 67 | 1014.9 |
| 20260509002235 | 14 | 253 | 0.0 | 0.0 | 0.00 | 0.00 | 0.00 | 66 | 1014.9 |
| 20260509001735 | 14 | 253 | 0.0 | 0.0 | 0.00 | 0.00 | 0.00 | 66 | 1014.9 |
| 20260509001235 | 15 | 253 | 0.0 | 0.0 | 0.00 | 0.00 | 0.00 | 66 | 1014.9 |
| 20260509000735 | 15 | 253 | 0.0 | 0.0 | 0.00 | 0.00 | 0.00 | 66 | 1014.9 |
| 20260509000234 | 15 | 253 | 0.0 | 0.0 | 0.00 | 0.00 | 0.00 | 66 | 1014.9 |
| 20260508235734 | 15 | 253 | 0.0 | 0.0 | 0.00 | 0.00 | 0.00 | 66 | 1015.0 |
| 20260508235234 | 15 | 253 | 0.0 | 0.0 | 0.00 | 0.00 | 0.00 | 66 | 1015.0 |
| 20260508234733 | 15 | 253 | 0.0 | 0.0 | 0.00 | 0.00 | 0.00 | 65 | 1015.0 |
| 20260508234233 | 15 | 253 | 0.0 | 0.0 | 0.00 | 0.00 | 0.00 | 65 | 1015.0 |
| 20260508233733 | 15 | 253 | 0.0 | 0.0 | 0.00 | 0.00 | 0.00 | 65 | 1015.0 |
| 20260508233232 | 15 | 253 | 0.0 | 0.0 | 0.00 | 0.00 | 0.00 | 65 | 1015.1 |
| 20260508232732 | 15 | 253 | 0.0 | 0.0 | 0.00 | 0.00 | 0.00 | 65 | 1015.0 |
| 20260508232232 | 15 | 253 | 0.0 | 0.0 | 0.00 | 0.00 | 0.00 | 65 | 1015.0 |
| 20260508231732 | 15 | 217 | 0.0 | 0.0 | 0.00 | 0.00 | 0.00 | 65 | 1014.9 |
| 20260508231231 | 15 | 217 | 0.0 | 0.0 | 0.00 | 0.00 | 0.00 | 64 | 1015.0 |
| 20260508230731 | 15 | 217 | 0.0 | 0.0 | 0.00 | 0.00 | 0.00 | 64 | 1015.0 |
| 20260508230231 | 15 | 217 | 0.0 | 0.0 | 0.00 | 0.00 | 0.00 | 64 | 1015.0 |
| 20260508225731 | 15 | 217 | 0.0 | 0.0 | 0.00 | 0.00 | 0.00 | 64 | 1015.1 |
| 20260508225230 | 15 | 217 | 0.0 | 0.0 | 0.00 | 0.00 | 0.00 | 64 | 1015.1 |
| 20260508224730 | 15 | 217 | 0.0 | 0.0 | 0.00 | 0.00 | 0.00 | 64 | 1015.1 |
| 20260508224230 | 15 | 217 | 0.0 | 0.0 | 0.00 | 0.00 | 0.00 | 64 | 1015.0 |
| 20260508223729 | 15 | 217 | 0.0 | 0.0 | 0.00 | 0.00 | 0.00 | 64 | 1014.9 |
| 20260508223229 | 15 | 87 | 0.0 | 1.6 | 0.00 | 0.00 | 0.00 | 63 | 1015.0 |
| 20260508222729 | 15 | 140 | 1.6 | 1.6 | 0.00 | 0.00 | 0.00 | 63 | 1014.9 |
| 20260508222229 | 15 | 265 | 0.0 | 0.0 | 0.00 | 0.00 | 0.00 | 63 | 1014.9 |
| 20260508221728 | 15 | 126 | 0.0 | 0.0 | 0.00 | 0.00 | 0.00 | 63 | 1014.8 |
| 20260508221228 | 15 | 109 | 0.0 | 0.0 | 0.00 | 0.00 | 0.00 | 63 | 1014.8 |
| 20260508220728 | 15 | 109 | 0.0 | 1.6 | 0.00 | 0.00 | 0.00 | 62 | 1014.8 |
| 20260508220227 | 15 | 241 | 0.0 | 1.6 | 0.00 | 0.00 | 0.00 | 62 | 1014.7 |
| 20260508215727 | 16 | 165 | 0.0 | 0.0 | 0.00 | 0.00 | 0.00 | 62 | 1014.7 |
| 20260508215227 | 16 | 165 | 0.0 | 0.0 | 0.00 | 0.00 | 0.00 | 62 | 1014.7 |
| 20260508214727 | 16 | 165 | 0.0 | 3.2 | 0.00 | 0.00 | 0.00 | 61 | 1014.6 |
| 20260508214226 | 16 | 118 | 1.6 | 3.2 | 0.00 | 0.00 | 0.00 | 61 | 1014.7 |
| 20260508213726 | 16 | 95 | 0.0 | 1.6 | 0.00 | 0.00 | 0.00 | 61 | 1014.6 |
| 20260508213226 | 16 | 106 | 0.0 | 3.2 | 0.00 | 0.00 | 0.00 | 60 | 1014.7 |
| 20260508212725 | 16 | 189 | 0.0 | 0.0 | 0.00 | 0.00 | 0.00 | 60 | 1014.6 |
| 20260508212225 | 16 | 189 | 0.0 | 4.8 | 0.00 | 0.00 | 0.00 | 60 | 1014.6 |
| 20260508211725 | 16 | 153 | 0.0 | 1.6 | 0.00 | 0.00 | 0.00 | 60 | 1014.5 |
| 20260508211225 | 16 | 209 | 0.0 | 1.6 | 0.00 | 0.00 | 0.00 | 59 | 1014.5 |
| 20260508210724 | 16 | 288 | 0.0 | 0.0 | 0.00 | 0.00 | 0.00 | 59 | 1014.5 |
| 20260508210224 | 16 | 288 | 0.0 | 0.0 | 0.00 | 0.00 | 0.00 | 59 | 1014.5 |
| 20260508205724 | 16 | 288 | 0.0 | 1.6 | 0.00 | 0.00 | 0.00 | 58 | 1014.5 |
| 20260508205223 | 16 | 143 | 0.0 | 1.6 | 0.00 | 0.00 | 0.00 | 58 | 1014.5 |
| 20260508204723 | 17 | 158 | 0.0 | 4.8 | 0.00 | 0.00 | 0.00 | 57 | 1014.5 |
| 20260508204223 | 17 | 272 | 0.0 | 0.0 | 0.00 | 0.00 | 0.00 | 57 | 1014.5 |
| 20260508203723 | 17 | 272 | 0.0 | 0.0 | 0.00 | 0.00 | 0.00 | 57 | 1014.4 |
| 20260508203222 | 17 | 194 | 0.0 | 0.0 | 0.00 | 0.00 | 0.00 | 56 | 1014.4 |
| 20260508202722 | 17 | 194 | 0.0 | 0.0 | 0.00 | 0.00 | 0.00 | 56 | 1014.4 |
| 20260508202222 | 17 | 194 | 0.0 | 0.0 | 0.00 | 0.00 | 0.00 | 55 | 1014.3 |
| 20260508201721 | 17 | 194 | 0.0 | 0.0 | 0.00 | 0.00 | 0.00 | 55 | 1014.3 |
| 20260508201221 | 17 | 194 | 0.0 | 0.0 | 0.00 | 0.00 | 0.00 | 55 | 1014.3 |
| 20260508200721 | 17 | 194 | 0.0 | 1.6 | 0.00 | 0.00 | 0.00 | 54 | 1014.2 |
| 20260508200221 | 17 | 112 | 0.0 | 3.2 | 0.00 | 0.00 | 0.00 | 54 | 1014.1 |
| 20260508195720 | 17 | 223 | 0.0 | 1.6 | 0.00 | 0.00 | 0.00 | 53 | 1014.0 |
| 20260508195220 | 18 | 74 | 0.0 | 1.6 | 0.00 | 0.00 | 0.00 | 52 | 1014.0 |
| 20260508194720 | 18 | 234 | 0.0 | 1.6 | 0.00 | 0.00 | 0.00 | 51 | 1014.0 |
| 20260508194219 | 18 | 234 | 0.0 | 0.0 | 0.00 | 0.00 | 0.00 | 50 | 1013.9 |
| 20260508193719 | 18 | 234 | 0.0 | 0.0 | 0.00 | 0.00 | 0.00 | 50 | 1013.9 |
| 20260508193219 | 18 | 234 | 0.0 | 0.0 | 0.00 | 0.00 | 0.00 | 49 | 1013.8 |
| 20260508192719 | 18 | 234 | 0.0 | 0.0 | 0.00 | 0.00 | 0.00 | 48 | 1013.8 |
| 20260508192218 | 18 | 234 | 0.0 | 0.0 | 0.00 | 0.00 | 0.00 | 48 | 1013.8 |
| 20260508191718 | 18 | 67 | 0.0 | 0.0 | 0.00 | 0.00 | 0.00 | 47 | 1013.7 |
| 20260508191218 | 20 | 67 | 0.0 | 0.0 | 0.00 | 0.00 | 0.00 | 47 | 1013.7 |
| 20260508190718 | 19 | 67 | 0.0 | 0.0 | 0.00 | 0.00 | 0.00 | 46 | 1013.6 |
| 20260508190217 | 20 | 67 | 0.0 | 0.0 | 0.00 | 0.00 | 0.00 | 46 | 1013.5 |
| 20260508185717 | 20 | 67 | 0.0 | 0.0 | 0.00 | 0.00 | 0.00 | 46 | 1013.5 |
| 20260508185217 | 20 | 67 | 0.0 | 0.0 | 0.00 | 0.00 | 0.00 | 45 | 1013.4 |
| 20260508184716 | 20 | 67 | 0.0 | 0.0 | 0.00 | 0.00 | 0.00 | 45 | 1013.4 |
| 20260508184216 | 20 | 67 | 0.0 | 0.0 | 0.00 | 0.00 | 0.00 | 44 | 1013.4 |
| 20260508183716 | 20 | 67 | 0.0 | 0.0 | 0.00 | 0.00 | 0.00 | 43 | 1013.3 |
| 20260508183216 | 20 | 67 | 0.0 | 0.0 | 0.00 | 0.00 | 0.00 | 43 | 1013.3 |
| 20260508182715 | 20 | 67 | 0.0 | 0.0 | 0.00 | 0.00 | 0.00 | 42 | 1013.2 |
| 20260508182215 | 21 | 67 | 0.0 | 0.0 | 0.00 | 0.00 | 0.00 | 42 | 1013.2 |
| 20260508181715 | 21 | 67 | 0.0 | 0.0 | 0.00 | 0.00 | 0.00 | 42 | 1013.2 |
| 20260508181214 | 21 | 67 | 0.0 | 0.0 | 0.00 | 0.00 | 0.00 | 41 | 1013.1 |
| 20260508180714 | 21 | 67 | 0.0 | 0.0 | 0.00 | 0.00 | 0.00 | 41 | 1013.1 |
| 20260508180214 | 21 | 67 | 0.0 | 0.0 | 0.00 | 0.00 | 0.00 | 40 | 1013.1 |
| 20260508175714 | 21 | 67 | 0.0 | 0.0 | 0.00 | 0.00 | 0.00 | 40 | 1013.0 |
| 20260508175213 | 21 | 67 | 0.0 | 0.0 | 0.00 | 0.00 | 0.00 | 40 | 1013.0 |
| 20260508174713 | 22 | 67 | 0.0 | 0.0 | 0.00 | 0.00 | 0.00 | 39 | 1013.1 |
| 20260508174213 | 22 | 67 | 0.0 | 0.0 | 0.00 | 0.00 | 0.00 | 39 | 1013.0 |
| 20260508173712 | 22 | 67 | 0.0 | 0.0 | 0.00 | 0.00 | 0.00 | 38 | 1013.0 |
| 20260508173212 | 22 | 67 | 0.0 | 0.0 | 0.00 | 0.00 | 0.00 | 38 | 1013.0 |
| 20260508172712 | 22 | 67 | 0.0 | 3.2 | 0.00 | 0.00 | 0.00 | 37 | 1013.0 |
| 20260508172212 | 23 | 257 | 0.0 | 1.6 | 0.00 | 0.00 | 0.00 | 36 | 1013.1 |
| 20260508171711 | 23 | 99 | 0.0 | 0.0 | 0.00 | 0.00 | 0.00 | 35 | 1013.0 |
| 20260508171211 | 24 | 99 | 0.0 | 4.8 | 0.00 | 0.00 | 0.00 | 33 | 1013.0 |
| 20260508170711 | 25 | 264 | 0.0 | 1.6 | 0.00 | 0.00 | 0.00 | 32 | 1013.0 |
| 20260508170210 | 25 | 22 | 0.0 | 3.2 | 0.00 | 0.00 | 0.00 | 31 | 1012.9 |
| 20260508165710 | 25 | 255 | 0.0 | 0.0 | 0.00 | 0.00 | 0.00 | 31 | 1012.8 |
| 20260508165210 | 25 | 255 | 0.0 | 3.2 | 0.00 | 0.00 | 0.00 | 31 | 1012.8 |
| 20260508164710 | 25 | 285 | 0.0 | 1.6 | 0.00 | 0.00 | 0.00 | 31 | 1012.8 |
| 20260508164209 | 25 | 122 | 0.0 | 0.0 | 0.00 | 0.00 | 0.00 | 31 | 1012.8 |
| 20260508163709 | 25 | 122 | 0.0 | 0.0 | 0.00 | 0.00 | 0.00 | 30 | 1012.8 |
| 20260508163209 | 25 | 122 | 0.0 | 3.2 | 0.00 | 0.00 | 0.00 | 30 | 1012.8 |
| 20260508162708 | 26 | 18 | 0.0 | 4.8 | 0.00 | 0.00 | 0.00 | 29 | 1012.8 |
| 20260508162208 | 26 | 109 | 0.0 | 4.8 | 0.00 | 0.00 | 0.00 | 28 | 1012.8 |
| 20260508161708 | 26 | 216 | 1.6 | 1.6 | 0.00 | 0.00 | 0.00 | 28 | 1012.8 |
| 20260508161208 | 25 | 230 | 0.0 | 11.3 | 0.00 | 0.00 | 0.00 | 29 | 1012.8 |
| 20260508160707 | 25 | 284 | 3.2 | 6.4 | 0.00 | 0.00 | 0.00 | 29 | 1012.8 |
| 20260508160207 | 25 | 92 | 1.6 | 1.6 | 0.00 | 0.00 | 0.00 | 30 | 1012.9 |
| 20260508155707 | 25 | 268 | 0.0 | 1.6 | 0.00 | 0.00 | 0.00 | 29 | 1012.9 |
| 20260508155206 | 26 | 5 | 0.0 | 1.6 | 0.00 | 0.00 | 0.00 | 28 | 1012.9 |
| 20260508154706 | 26 | 158 | 0.0 | 6.4 | 0.00 | 0.00 | 0.00 | 28 | 1012.9 |
| 20260508154206 | 26 | 248 | 0.0 | 6.4 | 0.00 | 0.00 | 0.00 | 29 | 1012.9 |
| 20260508153706 | 26 | 305 | 0.0 | 0.0 | 0.00 | 0.00 | 0.00 | 29 | 1012.9 |
| 20260508153205 | 26 | 222 | 0.0 | 6.4 | 0.00 | 0.00 | 0.00 | 28 | 1012.9 |
| 20260508152705 | 27 | 143 | 1.6 | 4.8 | 0.00 | 0.00 | 0.00 | 26 | 1013.0 |
| 20260508152205 | 27 | 113 | 0.0 | 4.8 | 0.00 | 0.00 | 0.00 | 26 | 1013.0 |
| 20260508151704 | 27 | 105 | 1.6 | 6.4 | 0.00 | 0.00 | 0.00 | 26 | 1013.0 |
| 20260508151204 | 27 | 116 | 0.0 | 3.2 | 0.00 | 0.00 | 0.00 | 25 | 1013.0 |
| 20260508150704 | 27 | 73 | 0.0 | 3.2 | 0.00 | 0.00 | 0.00 | 25 | 1013.1 |
| 20260508150204 | 27 | 237 | 1.6 | 4.8 | 0.00 | 0.00 | 0.00 | 26 | 1013.1 |
| 20260508145703 | 27 | 247 | 0.0 | 1.6 | 0.00 | 0.00 | 0.00 | 27 | 1013.1 |
| 20260508145203 | 26 | 215 | 0.0 | 4.8 | 0.00 | 0.00 | 0.00 | 27 | 1013.2 |
| 20260508144703 | 26 | 67 | 0.0 | 8.0 | 0.00 | 0.00 | 0.00 | 28 | 1013.2 |
| 20260508144202 | 26 | 268 | 3.2 | 4.8 | 0.00 | 0.00 | 0.00 | 29 | 1013.2 |
| 20260508143702 | 25 | 320 | 0.0 | 3.2 | 0.00 | 0.00 | 0.00 | 31 | 1013.3 |
| 20260508143202 | 25 | 146 | 1.6 | 4.8 | 0.00 | 0.00 | 0.00 | 32 | 1013.3 |
| 20260508142702 | 23 | 33 | 0.0 | 6.4 | 0.00 | 0.00 | 0.00 | 33 | 1013.3 |
| 20260508142201 | 23 | 237 | 0.0 | 6.4 | 0.00 | 0.00 | 0.00 | 34 | 1013.4 |
| 20260508141701 | 23 | 143 | 0.0 | 6.4 | 0.00 | 0.00 | 0.00 | 35 | 1013.4 |
| 20260508141201 | 23 | 268 | 1.6 | 8.0 | 0.00 | 0.00 | 0.00 | 34 | 1013.4 |
| 20260508140700 | 23 | 274 | 0.0 | 4.8 | 0.00 | 0.00 | 0.00 | 35 | 1013.4 |
| 20260508140200 | 22 | 163 | 0.0 | 6.4 | 0.00 | 0.00 | 0.00 | 36 | 1013.5 |
| 20260508135700 | 22 | 246 | 0.0 | 3.2 | 0.00 | 0.00 | 0.00 | 36 | 1013.5 |
| 20260508135200 | 22 | 70 | 0.0 | 1.6 | 0.00 | 0.00 | 0.00 | 36 | 1013.6 |
| 20260508134659 | 22 | 236 | 0.0 | 11.3 | 0.00 | 0.00 | 0.00 | 37 | 1013.5 |
| 20260508134159 | 22 | 281 | 3.2 | 9.7 | 0.00 | 0.00 | 0.00 | 37 | 1013.5 |
| 20260508133659 | 22 | 178 | 0.0 | 8.0 | 0.00 | 0.00 | 0.00 | 37 | 1013.6 |
| 20260508133158 | 22 | 42 | 0.0 | 4.8 | 0.00 | 0.00 | 0.00 | 36 | 1013.6 |
| 20260508132658 | 22 | 99 | 0.0 | 3.2 | 0.00 | 0.00 | 0.00 | 37 | 1013.7 |
| 20260508132158 | 22 | 118 | 0.0 | 4.8 | 0.00 | 0.00 | 0.00 | 36 | 1013.6 |
| 20260508131658 | 22 | 278 | 0.0 | 4.8 | 0.00 | 0.00 | 0.00 | 37 | 1013.7 |
| 20260508131157 | 22 | 187 | 0.0 | 6.4 | 0.00 | 0.00 | 0.00 | 37 | 1013.7 |
| 20260508130657 | 22 | 247 | 1.6 | 4.8 | 0.00 | 0.00 | 0.00 | 38 | 1013.7 |
| 20260508130157 | 22 | 191 | 0.0 | 4.8 | 0.00 | 0.00 | 0.00 | 38 | 1013.7 |
| 20260508125656 | 22 | 188 | 0.0 | 4.8 | 0.00 | 0.00 | 0.00 | 37 | 1013.8 |
| 20260508125156 | 22 | 282 | 0.0 | 3.2 | 0.00 | 0.00 | 0.00 | 37 | 1013.8 |